[[{"header":{"parameterUnit":"m.s-1","parameterCategory":1,"la1":30.2991,"la2":30.254,"lo1":-89.0895,"lo2":-89.0444,"dy":0.0017,"dx":0.0017,"nx":28,"ny":28,"refTime":"2025-03-09T03:00:00:Z","depth":0,"parameterNumber":2,"parameterNumberName":"U-component_of_WINDS"},"data":[0,0,0,0,0,0,0,0,0,0,0,0,0,0,0,0,0,0,0,0,0,0,0,0,0,0,0,0,0,0,0,0,0,0,0,0,0,0,0,0,0,0,0,0,0,0,0,0,0,0,0,0,0,0,0,0,0,0,2.1208,2.1208,0,2.1197,2.1197,2.1197,2.1155,2.1154,2.1153,2.1152,2.1139,2.114,2.114,0,0,0,0,0,0,0,0,0,0,0,0,0,2.1195,2.1195,2.1208,2.1208,2.1208,2.1197,2.1197,2.1197,2.1155,2.1154,2.1153,2.1152,2.1139,2.114,2.114,0,0,0,0,0,0,0,0,0,0,0,0,0,2.1194,2.1195,2.1209,2.1186,2.1184,2.1197,2.1197,2.1196,2.1155,2.1154,2.1152,2.1151,2.1139,2.114,2.114,2.1174,0,0,2.1143,2.1143,0,0,0,0,0,0,0,0,2.1194,2.1194,2.119,2.1188,2.1185,2.1176,2.1187,2.1189,2.1156,2.1166,2.1152,2.115,2.1152,2.1152,2.1153,2.1173,2.1173,2.1143,2.1143,2.1144,2.1144,0,0,0,0,0,0,0,2.1194,2.1195,2.1204,2.119,2.1187,2.1177,2.1175,2.1187,2.1167,2.1165,2.1162,2.1161,2.1151,2.1152,2.1152,2.1172,2.1143,2.1144,2.1144,2.1144,2.1221,2.1222,0,0,0,0,0,0,2.1197,2.1195,2.1204,2.1203,2.1186,2.1178,2.1176,2.118,2.1167,2.1164,2.1162,2.1159,2.1152,2.1151,2.1152,2.119,2.1144,2.1144,2.1145,2.1219,2.1221,2.1223,0,0,0,0,0,0,2.1197,2.1199,2.1205,2.1198,2.1198,2.118,2.1185,2.1181,2.1182,2.1165,2.1161,2.1167,2.115,2.1151,2.1169,2.1189,2.1145,2.1146,2.1217,2.122,2.1222,2.1268,0,0,0,0,0,0,2.1197,2.1199,2.1211,2.1199,2.1199,2.1222,2.1186,2.1182,2.1184,2.1179,2.1169,2.1166,2.1149,2.1168,2.117,2.119,2.1146,2.1215,2.1218,2.1221,2.1265,2.1272,2.1278,0,0,0,0,0,2.1197,2.1224,2.1212,2.1213,2.1214,2.1223,2.1223,2.1204,2.1185,2.1198,2.1187,2.1166,2.1187,2.117,2.1172,2.1192,2.1214,2.1217,2.1221,2.1262,2.127,2.1278,0,0,0,0,0,0,2.1238,2.1222,2.1208,2.1233,2.123,2.1216,2.1231,2.1214,2.1216,2.1212,2.1188,2.1186,2.1208,2.1202,2.1183,2.1225,2.1197,2.1201,2.1227,2.1236,2.1242,2.1243,2.1147,0,0,0,0,0,2.125,2.1259,2.1245,2.1268,2.1267,2.125,2.1253,2.1239,2.1235,2.1233,2.1224,2.122,2.1226,2.1231,2.1235,2.1264,2.1261,2.1279,2.1286,2.1291,2.1295,2.131,2.1318,2.1234,2.1234,2.1234,0,0,2.1275,2.1267,2.1274,2.1276,2.1272,2.1282,2.1249,2.126,2.1268,2.1235,2.1252,2.1245,2.124,2.1264,2.1274,2.1259,2.1317,2.1295,2.13,2.13,2.1315,2.1323,2.133,2.1236,2.1236,2.1236,0,0,2.1325,2.1321,2.1339,2.1337,2.1332,2.132,2.1325,2.1315,2.1309,2.1326,2.1302,2.131,2.1321,2.1318,2.1318,2.137,2.1351,2.1372,2.1406,2.1422,2.1428,2.1434,2.1453,2.146,2.1376,2.1376,2.1376,0,2.1357,2.1371,2.1351,2.1365,2.1367,2.1338,2.1358,2.1356,2.1353,2.1354,2.1339,2.1352,2.1347,2.137,2.1383,2.1384,2.1389,2.1373,2.1429,2.1435,2.144,2.1457,2.1465,2.1379,2.1379,2.1378,2.1378,0,2.141,2.1421,2.1437,2.1435,2.1439,2.1455,2.1438,2.1444,2.143,2.1421,2.1439,2.1431,2.1434,2.1439,2.1425,2.1461,2.1452,2.1433,2.1405,2.1451,2.1467,2.1474,2.1383,2.1382,2.1381,2.138,0,0,2.1485,2.1473,2.148,2.1479,2.1472,2.148,2.1496,2.1499,2.1505,2.1504,2.1517,2.1528,2.1511,2.1511,2.1497,2.151,2.1553,2.149,2.1489,2.1502,2.1592,2.1607,2.1615,2.154,2.1542,2.1542,2.1593,0,2.1533,2.1559,2.1543,2.1572,2.1582,2.1556,2.157,2.1567,2.1559,2.1566,2.1557,2.1565,2.1542,2.1542,2.1554,2.1545,2.1571,2.1541,2.1552,2.1553,2.1554,2.1623,2.1638,2.1686,2.1599,2.16,2.1601,0,2.1592,2.1595,2.1625,2.1618,2.1621,2.1634,2.1637,2.1644,2.1641,2.1634,2.1636,2.1619,2.1634,2.1607,2.1628,2.1608,2.1612,2.1608,2.1609,2.1609,2.1579,2.1625,2.17,2.1708,2.1611,2.161,2.1609,0,2.1644,2.1655,2.1675,2.1675,2.1667,2.1677,2.1674,2.167,2.1673,2.1676,2.1678,2.1682,2.1684,2.1688,2.1673,2.1654,2.1696,2.1667,2.1691,2.1691,2.17,2.17,2.1777,2.1703,2.1703,2.1703,2.1703,0,2.1699,2.1719,2.1698,2.1711,2.1732,2.1713,2.1735,2.1729,2.1726,2.1737,2.1715,2.1725,2.1705,2.1713,2.1701,2.1721,2.1722,2.1717,2.1713,2.1719,2.1719,2.172,2.1717,2.1705,2.1704,2.1704,2.1703,0,2.176,2.1747,2.1767,2.1759,2.1757,2.1773,2.1766,2.1777,2.1768,2.1782,2.1784,2.177,2.1779,2.1764,2.1771,2.1763,2.1791,2.1782,2.1792,2.1789,2.1814,2.1812,2.1894,2.1905,2.1824,2.1825,2.1825,0,2.1796,2.1811,2.1804,2.181,2.1809,2.1818,2.1823,2.1805,2.181,2.1809,2.1821,2.1828,2.1833,2.1849,2.1839,2.1845,2.1836,2.1865,2.1837,2.1842,2.1837,2.1836,2.1838,2.187,2.1871,2.1872,2.1873,0,2.1861,2.1855,2.1862,2.1867,2.1873,2.1876,2.1877,2.1884,2.1865,2.1872,2.1882,2.1886,2.1894,2.1902,2.1905,2.1902,2.1885,2.1882,2.1888,2.1893,2.1898,2.1896,2.1808,2.188,2.1879,2.1879,2.1878,2.1878,2.1911,2.1923,2.1921,2.193,2.193,2.1932,2.1942,2.1935,2.1943,2.1949,2.1938,2.195,2.1948,2.1951,2.195,2.196,2.1947,2.1955,2.1957,2.196,2.1964,2.1897,2.196,2.196,2.196,2.196,2.196,0,2.1975,2.1973,2.1982,2.1985,2.1992,2.1976,2.1977,2.1984,2.1996,2.1996,2.2001,2.2013,2.2021,2.2013,2.2019,2.2028,2.202,2.203,2.2029,2.2029,2.1974,2.1969,2.2037,2.2037,2.2037,2.2037,2.2037,2.2037,2.201,2.203,2.2023,2.2044,2.2041,2.2054,2.2056,2.2058,2.2058,2.2072,2.2079,2.2074,2.207,2.2076,2.2083,2.208,2.2084,2.2097,2.2091,2.204,2.2033,2.2026,2.202,2.2098,2.2098,2.2145,2.2146,2.2146]},{"header":{"parameterUnit":"m.s-1","parameterCategory":1,"la1":30.2991,"la2":30.254,"lo1":-89.0895,"lo2":-89.0444,"dy":0.0017,"dx":0.0017,"nx":28,"ny":28,"refTime":"2025-03-09T03:00:00:Z","depth":0,"parameterNumber":3,"parameterNumberName":"V-component_of_WINDS"},"data":[0,0,0,0,0,0,0,0,0,0,0,0,0,0,0,0,0,0,0,0,0,0,0,0,0,0,0,0,0,0,0,0,0,0,0,0,0,0,0,0,0,0,0,0,0,0,0,0,0,0,0,0,0,0,0,0,0,0,-3.3262,-3.3263,0,-3.3345,-3.3346,-3.3347,-3.3331,-3.333,-3.3328,-3.3327,-3.3407,-3.3411,-3.3414,0,0,0,0,0,0,0,0,0,0,0,0,0,-3.309,-3.3093,-3.3262,-3.3263,-3.3264,-3.3345,-3.3346,-3.3347,-3.3332,-3.333,-3.3328,-3.3326,-3.3406,-3.341,-3.3415,0,0,0,0,0,0,0,0,0,0,0,0,0,-3.3168,-3.3094,-3.3262,-3.3267,-3.3268,-3.3344,-3.3346,-3.3347,-3.3332,-3.333,-3.3328,-3.3325,-3.3405,-3.341,-3.3415,-3.3491,0,0,-3.3431,-3.3433,0,0,0,0,0,0,0,0,-3.3163,-3.3174,-3.3265,-3.3266,-3.3268,-3.3326,-3.3314,-3.3395,-3.3332,-3.3307,-3.3327,-3.3324,-3.3382,-3.3389,-3.3409,-3.3495,-3.3498,-3.3432,-3.3435,-3.3437,-3.3439,0,0,0,0,0,0,0,-3.3158,-3.3171,-3.3295,-3.3266,-3.3268,-3.3264,-3.3272,-3.333,-3.3356,-3.3309,-3.3309,-3.3319,-3.3382,-3.3404,-3.3411,-3.35,-3.3431,-3.3436,-3.3439,-3.3441,-3.3655,-3.3657,0,0,0,0,0,0,-3.3152,-3.3166,-3.3292,-3.3297,-3.3209,-3.3269,-3.3278,-3.3309,-3.3355,-3.336,-3.3321,-3.3318,-3.3396,-3.3404,-3.3413,-3.3507,-3.3437,-3.3442,-3.3445,-3.3652,-3.3655,-3.3658,0,0,0,0,0,0,-3.3148,-3.3163,-3.3289,-3.3232,-3.3247,-3.3274,-3.3309,-3.3312,-3.3334,-3.3363,-3.3368,-3.3338,-3.3394,-3.3406,-3.3473,-3.351,-3.3444,-3.3449,-3.3649,-3.3653,-3.3657,-3.3694,0,0,0,0,0,0,-3.3143,-3.3162,-3.3191,-3.3232,-3.325,-3.3348,-3.3311,-3.3315,-3.3343,-3.334,-3.3381,-3.3386,-3.3394,-3.3465,-3.3478,-3.3516,-3.3453,-3.3646,-3.3651,-3.3655,-3.369,-3.3699,-3.3707,0,0,0,0,0,-3.3137,-3.3197,-3.3193,-3.3208,-3.3288,-3.335,-3.336,-3.3369,-3.3346,-3.3376,-3.3396,-3.3384,-3.3504,-3.3472,-3.3486,-3.3526,-3.3644,-3.365,-3.3655,-3.3686,-3.3697,-3.3706,0,0,0,0,0,0,-3.3158,-3.3203,-3.3198,-3.3274,-3.3309,-3.3347,-3.3385,-3.338,-3.3421,-3.3416,-3.3425,-3.3434,-3.3502,-3.3521,-3.3485,-3.3603,-3.357,-3.3579,-3.3589,-3.36,-3.3608,-3.3602,-3.3458,0,0,0,0,0,-3.3172,-3.3219,-3.3255,-3.3318,-3.3336,-3.3358,-3.3385,-3.3389,-3.3425,-3.3439,-3.3463,-3.3497,-3.3543,-3.3572,-3.3615,-3.3692,-3.3702,-3.3727,-3.3735,-3.3742,-3.375,-3.3794,-3.3806,-3.3677,-3.3677,-3.3676,0,0,-3.32,-3.323,-3.3259,-3.3323,-3.3351,-3.3399,-3.337,-3.3422,-3.3458,-3.3446,-3.3512,-3.3531,-3.3569,-3.3643,-3.3676,-3.366,-3.3788,-3.3749,-3.3755,-3.3759,-3.3801,-3.3813,-3.3824,-3.368,-3.368,-3.3679,0,0,-3.3276,-3.3304,-3.336,-3.3389,-3.3432,-3.3446,-3.346,-3.35,-3.3513,-3.3579,-3.3572,-3.3615,-3.3692,-3.3721,-3.3745,-3.3835,-3.3827,-3.3849,-3.3893,-3.3936,-3.3946,-3.3955,-3.3989,-3.4001,-3.3856,-3.3857,-3.3857,0,-3.3305,-3.3379,-3.3389,-3.3444,-3.3473,-3.3466,-3.3524,-3.3551,-3.3605,-3.3625,-3.3606,-3.3705,-3.373,-3.3811,-3.3834,-3.3853,-3.387,-3.3844,-3.3944,-3.3953,-3.3962,-3.3994,-3.4006,-3.3859,-3.3859,-3.3858,-3.3858,0,-3.3414,-3.3466,-3.3506,-3.3561,-3.3594,-3.3649,-3.3668,-3.3701,-3.3703,-3.3719,-3.3787,-3.3818,-3.3868,-3.3887,-3.3889,-3.3969,-3.3958,-3.3942,-3.3909,-3.3977,-3.4007,-3.4019,-3.3863,-3.3862,-3.3861,-3.386,0,0,-3.3504,-3.3566,-3.3581,-3.3607,-3.3655,-3.3694,-3.375,-3.3801,-3.3829,-3.3867,-3.3914,-3.3981,-3.3967,-3.3995,-3.4,-3.4038,-3.4109,-3.4017,-3.4018,-3.4034,-3.4201,-3.4214,-3.4228,-3.4104,-3.4106,-3.4108,-3.4199,0,-3.3586,-3.3686,-3.3698,-3.3786,-3.3835,-3.3831,-3.3879,-3.3914,-3.3931,-3.3974,-3.3992,-3.4041,-3.4018,-3.4035,-3.4072,-3.4093,-3.4143,-3.4086,-3.4148,-3.415,-3.414,-3.4244,-3.4257,-3.4341,-3.421,-3.4212,-3.4214,0,-3.3695,-3.3739,-3.3833,-3.3876,-3.3897,-3.394,-3.3989,-3.4031,-3.407,-3.408,-3.4113,-3.4113,-3.4171,-3.4135,-3.4215,-3.4176,-3.4202,-3.4216,-3.422,-3.4226,-3.4187,-3.4254,-3.4367,-3.4381,-3.4232,-3.4231,-3.423,0,-3.3753,-3.3835,-3.3903,-3.3925,-3.3976,-3.4008,-3.403,-3.4068,-3.4098,-3.4141,-3.4161,-3.4209,-3.4235,-3.4272,-3.4286,-3.4259,-3.4365,-3.4331,-3.4375,-3.4375,-3.4398,-3.4397,-3.4518,-3.4413,-3.4413,-3.4413,-3.4413,0,-3.3844,-3.3902,-3.393,-3.3972,-3.4037,-3.405,-3.4114,-3.4135,-3.4169,-3.4215,-3.4213,-3.4255,-3.427,-3.4316,-3.4326,-3.4392,-3.4403,-3.4413,-3.4415,-3.4414,-3.4413,-3.4431,-3.4426,-3.4416,-3.4416,-3.4415,-3.4414,0,-3.392,-3.3941,-3.4015,-3.4059,-3.4072,-3.4118,-3.4155,-3.4196,-3.4213,-3.4271,-3.4285,-3.4312,-3.4365,-3.4383,-3.4446,-3.4453,-3.453,-3.4527,-3.4518,-3.4518,-3.4563,-3.4559,-3.4701,-3.4721,-3.4602,-3.4603,-3.4604,0,-3.3977,-3.4022,-3.4072,-3.4103,-3.4128,-3.4178,-3.421,-3.4225,-3.4259,-3.4309,-3.4343,-3.4396,-3.444,-3.4525,-3.455,-3.4599,-3.4597,-3.4644,-3.4605,-3.4603,-3.46,-3.4598,-3.4603,-3.4651,-3.4653,-3.4654,-3.4654,0,-3.4076,-3.4085,-3.4132,-3.4185,-3.4224,-3.4264,-3.4304,-3.4329,-3.435,-3.4388,-3.4444,-3.4478,-3.4544,-3.4598,-3.4648,-3.4671,-3.4667,-3.4667,-3.468,-3.4679,-3.4673,-3.4679,-3.4539,-3.4663,-3.4663,-3.4662,-3.4661,-3.4661,-3.4145,-3.4186,-3.4229,-3.4282,-3.4314,-3.4352,-3.4392,-3.4416,-3.4463,-3.452,-3.4526,-3.4586,-3.4626,-3.4694,-3.4719,-3.4767,-3.4753,-3.4772,-3.4777,-3.4782,-3.4786,-3.4665,-3.4775,-3.4775,-3.4775,-3.4775,-3.4775,0,-3.4246,-3.4274,-3.4323,-3.438,-3.4422,-3.4416,-3.446,-3.4495,-3.4549,-3.4587,-3.4631,-3.4696,-3.4748,-3.4778,-3.4831,-3.4863,-3.4862,-3.4876,-3.4874,-3.488,-3.4794,-3.4778,-3.4876,-3.4876,-3.4876,-3.4876,-3.4876,-3.4876,-3.4303,-3.4373,-3.4387,-3.4473,-3.4499,-3.456,-3.4586,-3.4621,-3.4652,-3.4725,-3.477,-3.479,-3.4825,-3.488,-3.4928,-3.4935,-3.4955,-3.4971,-3.4977,-3.4896,-3.4886,-3.4876,-3.4861,-3.4975,-3.4975,-3.5059,-3.506,-3.5061]}]]